{"data":{"norad_id":68517,"epoch":"2026-09-19T20:00:47.460096Z","epoch_age_seconds":105919,"freshness":"FRESH","line1":"1 68517U 26068K   26262.83388264  .00013783  00000+0  41826-3 0  9994","line2":"2 68517  53.1615 302.9392 0000964  77.6625 282.4485 15.34404300 26735","mean_motion":15.344043,"eccentricity":9.64e-5,"inclination_deg":53.1615,"raan_deg":302.9392,"arg_perigee_deg":77.6625,"mean_anomaly_deg":282.4485,"bstar":0.00041826,"rev_number":2673,"period_min":93.847495083271,"perigee_km":462.03100396365,"apogee_km":463.34991549789,"semimajor_km":6840.8274597308,"source":"CELESTRAK","updated_at":"2026-09-20T09:00:43.903349Z"}}